Tracking 18980 objects as of 21-Feb-2018
HD Live streaming from Space Station
objects crossing your sky now

FENGYUN 1C DEB

Track FENGYUN 1C DEB now!
10-day predictions


NORAD ID: 32411
Int'l Code: 1999-025CZX
Perigee: 785.1 km
Apogee: 973.1 km
Inclination: 98.4 °
Period: 102.4 minutes
Semi major axis: 7250 km
RCS: 0.0079 m2 (small)
Launch date: May 10, 1999
Source: People's Republic of China (PRC)
Launch site: Taiyaun Space Center, China (TSC)

Note: This is SATELLITE DEBRIS
aabbcc
Your satellite tracking list
Your tracking list is empty




NASA's NSSDC Master Catalog

Two Line Element Set (TLE):
1 32411U 99025CZX 18051.47891640 +.00000187 +00000-0 +12775-3 0  9991
2 32411 098.4167 144.7432 0129677 224.9232 134.1387 14.06333560256987
Source of the keplerian elements: AFSPC